Wind_Speed
14 25 20 14 11 13 14 11 11 14 14 14 14 14 15 15 16 17 17 17 17 17 16 15 16 17 17 17 18 18 17 17 16 16 15 15 15 15 18 16 14 10 11
24 26 17 14 12 12 10 11 13 15 16 17 17 17 17 17 17 17 17 18 18 18 17 17 18 18 18 17 18 18 18 20 20 19 17 16 16 14 14 15 9 11 10
21 16 13 12 11 11 11 12 14 16 17 18 18 18 17 17 17 17 17 18 19 19 18 18 18 17 17 18 17 17 19 23 19 19 21 11 12 13 13 12 11 11 10
15 12 8 11 11 11 13 15 15 17 16 16 16 17 17 16 16 17 19 19 19 18 17 17 18 17 16 16 16 17 20 20 19 10 14 12 8 11 12 11 9 10 11
16 12 10 11 11 12 14 14 14 15 14 15 15 16 15 14 15 16 17 17 18 17 16 16 16 15 15 15 16 18 22 20 17 12 13 12 8 10 11 9 8 9 9
17 12 12 12 12 14 13 14 14 14 14 15 15 15 14 13 14 15 17 17 17 18 17 16 15 14 14 15 15 16 19 19 14 8 10 10 6 9 9 8 6 8 7
15 11 12 13 13 14 14 14 14 14 14 14 13 14 13 13 13 16 16 16 17 17 17 18 17 16 14 14 13 13 16 18 11 10 9 7 10 11 11 10 10 10 11
9 14 11 13 14 14 14 13 13 13 14 13 13 11 13 13 13 14 14 15 16 16 17 17 16 16 15 13 12 11 13 16 10 11 8 8 11 12 13 12 12 12 12
17 12 10 11 13 14 13 13 13 13 13 12 13 12 12 11 11 11 13 15 15 15 15 14 14 14 14 12 12 14 16 16 9 9 7 6 10 13 13 11 12 12 12
12 12 17 11 12 12 11 12 12 12 13 13 13 13 14 16 16 16 10 14 14 13 13 13 13 15 14 12 12 17 18 16 8 9 6 9 11 13 12 11 11 12 11
11 12 9 16 13 16 11 12 12 13 13 13 17 19 14 10 10 10 9 12 11 11 11 11 12 14 13 14 16 16 16 9 7 9 5 9 10 11 10 10 10 10 10
13 13 18 13 13 13 16 13 10 12 11 9 9 9 9 13 11 10 13 11 10 10 10 10 12 14 11 2 7 12 11 9 8 6 6 9 10 10 9 9 10 10 11
15 13 13 14 11 13 12 12 10 10 8 9 11 10 11 10 10 8 8 9 8 10 6 5 7 9 3 5 5 6 8 8 9 5 7 8 8 9 9 10 10 10 11
14 12 12 13 12 13 9 14 12 12 9 9 9 11 12 7 7 7 6 8 8 5 8 1 2 4 3 5 6 7 8 7 7 4 6 7 8 8 9 9 9 10 11
14 13 12 12 12 11 7 11 10 11 10 10 8 8 5 4 5 5 6 4 8 5 5 5 3 3 5 6 6 8 7 7 7 6 4 8 8 8 8 8 8 10 11
14 13 12 12 11 12 11 9 11 7 10 9 7 7 9 4 6 6 6 8 7 5 4 3 2 3 5 5 7 7 6 5 7 6 3 7 6 6 7 8 10 11 13
14 14 13 12 11 9 11 12 9 9 10 9 9 6 4 4 4 12 7 6 6 4 4 2 2 4 5 5 6 7 5 5 4 5 4 0 8 10 11 11 12 13 14
15 15 14 12 12 11 11 10 9 8 8 8 7 4 5 6 7 8 6 8 11 7 5 4 4 3 4 4 5 4 4 2 4 3 2 1 4 3 11 12 14 16 13
15 15 15 14 13 10 11 10 11 9 10 8 6 5 7 5 4 6 8 8 5 10 11 6 5 4 4 4 4 4 4 4 3 3 4 5 5 5 6 12 15 16 16
15 14 15 14 13 12 12 9 8 7 8 7 7 7 7 4 2 4 6 3 12 8 11 8 5 4 3 4 4 4 4 5 5 5 4 5 5 7 8 12 9 13 17
15 15 15 15 13 13 11 9 7 9 8 8 6 6 5 4 4 6 1 6 13 11 13 4 2 3 1 2 4 5 7 9 9 7 5 4 5 8 9 8 8 6 12
17 17 16 13 13 15 11 10 7 10 7 7 7 5 5 5 5 2 5 3 6 7 4 1 3 0 2 3 13 4 11 10 9 9 6 4 5 7 8 8 9 9 9
18 18 17 16 13 14 14 10 6 8 8 8 7 6 7 5 3 3 2 4 2 4 5 1 3 7 11 0 6 12 17 4 16 1 4 4 3 5 8 8 8 7 7
17 17 18 17 17 13 16 14 12 10 9 8 6 6 5 7 5 4 4 2 3 3 4 3 3 4 8 10 3 4 10 8 12 8 3 3 6 4 5 5 6 6 14
18 17 17 17 18 14 15 12 14 13 6 9 6 7 8 6 7 5 6 5 5 2 4 7 5 7 0 8 6 7 4 6 7 7 12 11 3 5 4 5 7 8 7
19 17 17 17 18 18 15 19 17 12 9 6 9 5 6 5 6 8 7 5 6 6 6 4 5 6 8 6 7 4 8 9 8 10 12 10 8 9 9 3 4 7 10
Wind_Direction
101 116 111 103 89 80 74 82 100 101 105 107 109 106 102 102 98 97 96 95 95 94 93 94 100 99 107 106 104 106 103 102 100 99 100 100 103 105 101 97 72 89 93
122 107 113 110 107 93 87 97 105 105 104 103 105 103 101 102 100 97 97 95 95 96 96 96 100 104 103 105 104 102 102 99 91 85 84 91 96 101 105 118 133 89 89
129 122 117 110 102 105 98 104 109 104 103 105 103 101 103 103 99 97 97 101 100 101 100 100 96 100 101 102 104 103 100 95 97 90 82 78 90 96 97 93 83 81 81
131 119 126 116 119 120 116 111 107 106 104 103 102 102 100 98 99 100 102 103 101 100 101 102 100 98 102 106 106 104 104 95 85 93 99 76 94 97 85 75 71 79 73
138 129 128 113 114 118 113 114 110 108 110 108 107 102 101 104 106 105 104 101 96 98 101 103 102 103 102 105 106 106 103 96 92 91 114 93 92 94 91 82 70 82 95
129 129 120 116 113 118 113 112 112 110 113 112 106 105 102 97 107 113 108 103 95 96 94 97 100 103 106 106 108 108 111 94 84 95 92 126 111 92 90 87 81 77 74
113 119 118 117 116 119 121 113 115 115 114 113 111 108 103 108 103 114 111 106 101 99 96 96 94 94 96 100 103 105 111 96 96 93 94 92 90 90 87 81 76 72 63
135 122 117 123 124 129 122 120 118 118 117 117 115 112 106 107 110 116 115 108 104 102 101 97 92 90 90 93 98 105 111 100 92 100 101 90 88 88 83 78 73 69 62
118 122 122 127 131 124 122 118 117 114 116 118 116 112 109 107 98 109 122 117 111 105 102 97 91 89 87 90 95 96 99 98 104 94 74 79 93 89 82 78 73 65 56
126 128 129 130 124 116 122 121 119 118 120 116 106 94 92 87 85 79 103 120 119 111 105 96 92 84 79 77 91 91 81 80 92 81 95 95 92 88 84 76 66 58 51
135 136 147 125 138 137 131 122 116 108 101 100 101 92 90 91 85 91 134 124 121 114 105 95 90 84 75 62 77 72 73 80 92 90 88 97 93 87 84 75 66 58 48
143 147 141 138 144 139 139 114 124 108 96 110 116 96 110 120 120 105 93 110 115 106 95 93 86 65 56 15 27 54 79 99 100 99 102 96 89 85 75 67 61 50 40
146 137 155 151 121 138 145 114 129 103 122 131 118 117 124 122 97 119 63 74 87 83 70 65 31 48 94 108 87 105 107 100 95 112 106 97 90 82 75 63 53 42 33
144 147 142 139 156 129 129 138 142 136 134 127 141 131 118 109 69 106 117 117 117 116 111 95 61 94 94 95 113 107 106 104 107 108 97 93 89 82 71 57 44 33 24
151 150 147 153 143 145 138 135 137 136 138 142 129 138 106 123 117 111 137 138 121 138 117 102 99 100 86 94 111 111 117 122 112 111 92 96 87 68 52 35 19 8 359
155 155 156 151 145 143 138 137 138 155 135 140 143 163 145 114 124 115 126 122 132 123 132 117 157 86 111 111 116 117 112 120 132 112 118 64 60 37 14 360 358 355 351
158 158 156 153 153 150 139 144 143 150 147 155 159 161 143 120 142 131 136 139 140 169 150 133 112 138 129 124 123 116 131 117 120 125 111 221 322 332 347 343 341 338 338
161 164 157 155 156 147 145 145 150 144 150 155 144 139 129 165 145 107 165 165 166 156 139 165 153 141 141 139 134 132 149 155 167 167 164 255 284 315 326 326 334 337 338
165 164 157 160 163 154 153 155 152 180 134 162 147 151 145 142 152 142 197 205 179 149 127 129 142 156 163 175 178 177 186 194 194 228 261 302 304 327 318 319 327 340 342
166 166 162 166 166 157 159 165 168 177 142 158 152 163 152 158 156 153 250 204 292 104 115 117 135 172 188 225 255 179 228 236 236 240 266 292 287 319 320 319 327 328 334
169 168 168 172 167 171 171 168 162 165 167 172 172 186 179 149 196 190 186 312 13 53 95 103 128 111 199 248 241 240 247 246 240 239 248 269 298 315 319 318 353 321 327
178 179 180 179 186 172 176 194 183 167 168 177 196 171 165 189 182 205 182 312 265 88 91 61 227 193 248 268 277 273 243 213 263 227 224 251 289 307 315 322 328 325 330
182 187 191 193 197 198 189 204 203 181 167 168 189 179 194 195 202 223 229 247 175 101 160 113 285 292 297 8 292 308 7 84 266 57 16 268 306 324 315 320 340 354 358
183 189 191 196 204 205 191 188 189 181 183 184 190 191 182 187 203 223 229 243 221 229 272 310 299 274 300 319 299 263 325 344 323 344 243 320 39 2 1 12 9 346 1
185 188 191 194 203 200 200 191 186 209 212 165 179 198 189 229 201 211 235 234 244 218 265 257 282 277 303 293 321 335 297 299 303 331 321 334 23 37 19 348 337 342 333
187 189 192 194 199 196 204 199 189 207 214 191 199 207 209 222 234 209 221 239 235 238 289 277 260 286 266 250 261 331 299 316 317 319 321 324 333 319 359 290 350 348 353
Height
1544 1544 1546 1549 1550 1551 1550 1551 1549 1549 1550 1550 1551 1551 1552 1552 1553 1553 1554 1554 1556 1556 1558 1558 1558 1559 1559 1560 1561 1561 1561 1561 1561 1562 1562 1562 1563 1563 1564 1565 1567 1565 1565
1545 1546 1547 1551 1552 1552 1553 1552 1552 1551 1551 1552 1552 1553 1554 1556 1556 1556 1557 1557 1558 1559 1560 1561 1561 1561 1562 1563 1563 1563 1563 1564 1565 1566 1566 1565 1565 1566 1566 1567 1567 1566 1566
1546 1547 1550 1552 1552 1552 1554 1553 1553 1554 1554 1554 1555 1556 1557 1558 1558 1558 1559 1560 1561 1562 1563 1563 1563 1564 1565 1565 1565 1566 1566 1566 1567 1568 1568 1570 1568 1568 1568 1568 1568 1568 1568
1548 1551 1554 1553 1554 1554 1555 1555 1556 1556 1557 1557 1558 1559 1560 1561 1561 1562 1563 1563 1564 1564 1565 1565 1566 1567 1567 1567 1568 1568 1569 1570 1570 1571 1572 1574 1573 1570 1570 1571 1570 1570 1570
1551 1553 1553 1554 1555 1556 1557 1557 1557 1559 1560 1561 1562 1562 1563 1564 1564 1565 1566 1567 1566 1567 1568 1568 1569 1570 1570 1570 1570 1571 1572 1572 1573 1575 1576 1576 1575 1572 1572 1572 1572 1572 1572
1552 1554 1553 1555 1556 1558 1558 1559 1560 1562 1563 1563 1564 1565 1566 1566 1567 1569 1569 1570 1570 1570 1570 1570 1571 1572 1572 1572 1573 1573 1574 1574 1575 1579 1579 1577 1575 1574 1574 1574 1574 1574 1573
1553 1555 1556 1557 1559 1560 1561 1562 1563 1565 1565 1566 1568 1568 1569 1569 1571 1571 1572 1573 1573 1573 1573 1574 1574 1575 1575 1574 1575 1575 1576 1576 1580 1580 1580 1579 1576 1576 1576 1576 1576 1575 1574
1554 1557 1558 1559 1560 1562 1564 1564 1566 1567 1567 1569 1569 1570 1571 1572 1573 1574 1574 1575 1576 1576 1577 1577 1578 1577 1577 1577 1577 1577 1578 1577 1582 1582 1582 1580 1579 1578 1578 1578 1578 1577 1576
1554 1559 1561 1562 1562 1564 1565 1566 1568 1569 1570 1571 1572 1573 1574 1574 1575 1576 1576 1577 1578 1579 1580 1580 1580 1580 1579 1579 1579 1579 1580 1580 1583 1584 1585 1581 1581 1580 1580 1580 1580 1579 1578
1558 1561 1561 1564 1565 1568 1568 1569 1570 1571 1573 1574 1575 1576 1577 1578 1578 1579 1580 1580 1581 1581 1582 1582 1582 1582 1582 1582 1582 1582 1582 1582 1586 1586 1585 1583 1583 1582 1582 1582 1581 1581 1580
1560 1562 1561 1563 1567 1569 1570 1571 1573 1574 1576 1577 1578 1579 1579 1581 1583 1582 1582 1582 1583 1583 1584 1584 1584 1584 1584 1584 1585 1584 1583 1586 1588 1589 1586 1586 1585 1584 1584 1584 1583 1582 1581
1562 1561 1562 1567 1568 1570 1573 1574 1577 1578 1578 1582 1583 1582 1584 1584 1586 1586 1584 1585 1585 1586 1586 1586 1586 1586 1585 1586 1586 1586 1586 1589 1590 1590 1588 1587 1587 1587 1586 1586 1585 1584 1583
1562 1564 1565 1567 1570 1572 1573 1574 1578 1579 1582 1583 1583 1586 1586 1587 1587 1586 1587 1587 1588 1588 1588 1588 1587 1587 1589 1590 1590 1590 1590 1591 1591 1591 1589 1589 1589 1588 1588 1587 1587 1585 1584
1563 1565 1567 1570 1571 1573 1574 1576 1580 1581 1583 1585 1586 1587 1587 1589 1588 1589 1589 1589 1590 1590 1589 1589 1590 1590 1591 1590 1591 1592 1592 1592 1593 1593 1591 1591 1591 1590 1590 1589 1588 1586 1585
1564 1566 1569 1571 1573 1574 1576 1579 1580 1582 1584 1585 1587 1588 1588 1589 1589 1590 1589 1589 1590 1590 1591 1591 1591 1592 1592 1592 1593 1593 1594 1593 1594 1595 1593 1593 1593 1592 1591 1590 1589 1587 1585
1565 1567 1569 1571 1574 1576 1578 1580 1582 1582 1585 1587 1588 1589 1588 1590 1590 1591 1591 1591 1592 1592 1592 1592 1592 1592 1593 1593 1594 1595 1595 1595 1595 1596 1596 1595 1594 1593 1592 1591 1589 1587 1586
1566 1568 1571 1573 1575 1577 1579 1581 1583 1585 1586 1587 1588 1588 1589 1590 1590 1590 1591 1589 1591 1590 1591 1592 1592 1593 1594 1595 1595 1596 1596 1596 1596 1596 1597 1598 1595 1594 1593 1591 1589 1587 1585
1565 1568 1572 1573 1576 1578 1580 1582 1584 1584 1587 1588 1589 1590 1591 1590 1591 1590 1588 1585 1583 1586 1590 1593 1594 1595 1596 1596 1596 1597 1597 1597 1596 1596 1596 1596 1596 1595 1592 1591 1589 1587 1584
1565 1569 1572 1574 1576 1579 1580 1582 1585 1586 1587 1589 1590 1591 1591 1592 1591 1586 1579 1587 1591 1580 1586 1592 1594 1595 1596 1596 1596 1597 1597 1597 1595 1596 1596 1596 1596 1595 1594 1590 1588 1586 1585
1566 1569 1572 1574 1575 1580 1581 1584 1585 1587 1588 1590 1590 1591 1592 1593 1593 1587 1577 1594 1569 1584 1582 1591 1594 1596 1596 1597 1597 1597 1598 1597 1597 1595 1594 1594 1594 1594 1594 1591 1589 1585 1585
1566 1569 1572 1573 1576 1579 1582 1584 1585 1587 1589 1590 1592 1591 1592 1594 1594 1590 1581 1576 1573 1574 1585 1594 1596 1596 1598 1598 1597 1596 1595 1594 1593 1592 1592 1592 1593 1593 1593 1591 1590 1588 1586
1565 1568 1571 1572 1575 1578 1582 1582 1585 1585 1589 1590 1591 1592 1594 1595 1596 1594 1592 1589 1586 1588 1594 1596 1595 1595 1598 1598 1591 1588 1587 1590 1593 1589 1590 1589 1590 1591 1592 1591 1589 1588 1585
1563 1567 1570 1573 1575 1578 1579 1583 1585 1587 1589 1591 1591 1593 1594 1596 1596 1595 1596 1593 1594 1594 1593 1597 1597 1596 1581 1596 1595 1588 1583 1585 1586 1586 1594 1592 1587 1589 1590 1590 1589 1587 1585
1560 1565 1569 1571 1574 1576 1579 1581 1585 1587 1588 1589 1591 1592 1594 1596 1597 1598 1597 1598 1598 1597 1597 1599 1598 1598 1597 1595 1596 1593 1591 1590 1590 1591 1586 1586 1585 1587 1587 1589 1589 1586 1585
1558 1563 1567 1570 1572 1575 1577 1579 1583 1584 1585 1588 1590 1590 1594 1594 1595 1598 1597 1598 1598 1599 1598 1598 1597 1598 1599 1598 1597 1595 1595 1594 1591 1591 1590 1587 1584 1585 1587 1589 1589 1587 1582
1555 1560 1564 1567 1570 1573 1576 1578 1581 1583 1585 1588 1590 1591 1593 1594 1594 1595 1597 1597 1598 1598 1598 1598 1598 1597 1597 1597 1598 1598 1597 1595 1593 1591 1588 1587 1587 1586 1587 1587 1587 1587 1585